Regional Weather Roundup
Issued by NWS San Angelo, TX

Home | Current Version | Previous Version | Text Only | Print | Product List | Glossary On
Versions: 1 2 3 4 5 6 7 8 9 10 11 12 13 14 15 16 17 18 19 20 21 22 23 24 25 26 27 28 29 30 31 32 33 34 35 36 37 38 39 40 41 42 43 44 45 46 47 48 49 50
000
ASUS44 KSJT 070910
RWRSJT
WEST CENTRAL TEXAS REGIONAL WEATHER ROUNDUP
NATIONAL WEATHER SERVICE SAN ANGELO TX
400 AM CDT THU MAY 07 2015

NOTE: "FAIR" INDICATES FEW OR NO CLOUDS BELOW 12,000 FEET WITH NO
SIGNIFICANT WEATHER AND/OR OBSTRUCTIONS TO VISIBILITY.

TXZ049-054-064>066-071>073-076>078-098-099-113-114-127-128-139-140-
154-155-168>170-071000
...LOCATIONS ACROSS WEST CENTRAL TEXAS...

CITY           SKY/WX    TMP DP  RH WIND       PRES   REMARKS
SAN ANGELO     CLOUDY    73  65  75 S9        29.80F
ABILENE        PTCLDY    70  63  78 S16       29.82F
DYESS AFB      CLEAR     69  63  81 SE13      29.81S
JUNCTION       CLOUDY    72  66  81 S12       29.84F
SWEETWATER     CLOUDY    69  65  87 SE14      29.85R
BROWNWOOD      CLOUDY    70  66  88 SE9       29.86R
COLEMAN        CLOUDY    70  65  83 SE12G17   29.86S
SONORA         PTCLDY    72  66  83 S13       29.86F
OZONA          FAIR      72  64  78 S16       29.84S
BRADY          MOCLDY    70  66  88 SE13      29.84F
$$

TEXAS PANHANDLE/OKLAHOMA PANHANDLE

CITY           SKY/WX    TMP DP  RH WIND       PRES   REMARKS
AMARILLO       MOCLDY    59  57  93 SE15      29.84R
BORGER         PTCLDY    62  58  86 S13G18    29.81R
CANADIAN       CLEAR     64  59  84 S22G29    29.77S
DALHART        PTCLDY    53  44  71 S3        29.81S
DUMAS          SUNNY     53  47  77 SE8       29.80S
GUYMON         NOT AVBL
HEREFORD       SUNNY     56  54  94 MISG      29.84R
PAMPA          MOSUNNY   59  58  94 S18G24    29.81F
PERRYTON       CLEAR     60  58  93 S12       29.80R
$$

SOUTHERN PANHANDLE/SOUTH PLAINS/ROLLING PLAINS

CITY           SKY/WX    TMP DP  RH WIND       PRES   REMARKS
LUBBOCK        MOCLDY    65  62  90 S8        29.85R
SNYDER         CLOUDY    69  65  86 SE9       29.84R
CHILDRESS      MOCLDY    65  63  93 S21       29.82S
SEMINOLE       CLOUDY    64  62  95 NW7       29.83S FOG
$$

PERMIAN BASIN

CITY           SKY/WX    TMP DP  RH WIND       PRES   REMARKS
MIDLAND        CLOUDY    70  63  78 S16G24    29.78F
ODESSA         CLOUDY    69  62  78 S21G26    29.79S
WINK           CLOUDY    70  61  73 SE12      29.76S
$$

FAR WEST/SOUTHWEST MOUNTAINS/TRANS PECOS

CITY           SKY/WX    TMP DP  RH WIND       PRES   REMARKS
ALPINE         SUNNY     63  58  83 CALM      29.91S
DRYDEN           N/A     73  68  84 SE14      29.77S
EL PASO        PTCLDY    72  26  18 W18       29.85S
FORT STOCKTON  CLEAR     67  62  84 SE12      29.77F
GUADALUPE PASS MOCLDY    62  35  36 SW7       29.92S
MARFA          CLEAR     52  48  87 NW8       29.91R
PECOS          MOSUNNY   66  60  79 CALM      29.75F
$$

DALLAS/FORT WORTH METROPLEX

CITY           SKY/WX    TMP DP  RH WIND       PRES   REMARKS
DFW AIRPORT    CLOUDY    72  68  87 S8        29.91R
FTW MEACHAM    CLOUDY    73  67  81 S5        29.91R
DAL-EXECUTIVE  CLOUDY    73  67  81 S8        29.90S
GRAND PRAIRIE  CLOUDY    73  68  86 S8        29.92S
ADDISON        CLOUDY    74  67  79 S10G17    29.94R
MESQUITE       CLOUDY    72  68  89 SE10G17   29.91S
LANCASTER      CLOUDY    71  67  85 S6        29.92R
$$

NORTH CENTRAL TEXAS

CITY           SKY/WX    TMP DP  RH WIND       PRES   REMARKS
SHRMAN/DENISON TSTM      64  64  99 NW12      29.93F
GAINESVILLE    RAIN      60  58  95 NE9       29.93F
BRIDGEPORT     CLOUDY    63  63 100 E6        29.94F
DENTON         LGT RAIN  62  60  93 N20G25    29.93R
WAXAHACHIE     CLOUDY    71  70  95 S5        29.92R
GRANBURY         N/A     73  67  83 SE8       29.90S
$$

WESTERN NORTH TEXAS

CITY           SKY/WX    TMP DP  RH WIND       PRES   REMARKS
WICHITA FALLS  CLOUDY    62  60  93 E10       29.89R
VERNON         CLOUDY    64  57  80 SE14      29.86S
BRECKENRIDGE   CLOUDY    73  64  73 E7        29.87S
COMANCHE       PTCLDY    68  68 100 SE8       29.87R
$$

CENTRAL AND SOUTH CENTRAL TEXAS

CITY           SKY/WX    TMP DP  RH WIND       PRES   REMARKS
AUSTIN/BERGSTM CLOUDY    73  70  90 SE7       29.86F
WACO           CLOUDY    71  68  90 SE13      29.89R
HILLSBORO      MOSUNNY   71  66  84 SE12G18   29.90S
TEMPLE         MOCLDY    70  64  83 SE12      29.87F
KILLEEN-GRAY   MOCLDY    70  68  93 SE15      29.85F
FORT HOOD      CLOUDY    70  68  92 SE10      29.86F
GEORGETOWN     CLOUDY    72  70  94 SE7       29.86F
LAGO VISTA     CLOUDY    72  69  89 SE9       29.88F
SAN MARCOS     MOCLDY    72  68  88 SE8       29.87F
NEW BRAUNFELS  CLOUDY    73  70  90 S7        29.85F
RANDOLPH AFB   CLOUDY    72  70  93 SE9       29.86F
SAN ANTONIO    CLOUDY    74  69  85 SE12      29.86F
STINSON        CLOUDY    73  70  90 SE8       29.84F
PLEASANTON     NOT AVBL
LA GRANGE      MOCLDY    76  73  90 SE6       29.86F
GIDDINGS       CLOUDY    73  69  87 S6        29.91F
$$

EAST TEXAS

CITY           SKY/WX    TMP DP  RH WIND       PRES   REMARKS
PARIS          CLOUDY    70  66  88 SE8       29.94S
CLARKSVILLE    NOT AVBL
TYLER          CLOUDY    72  67  84 SE9       29.92F
LONGVIEW       MOCLDY    68  65  90 SE7       29.94F
PALESTINE      MOSUNNY   70  69  95 SE7       29.93F
NACOGDOCHES    CLOUDY    66  64  94 SE3       29.94F
$$

TEXAS HILL COUNTRY AND EDWARDS PLATEAU

CITY           SKY/WX    TMP DP  RH WIND       PRES   REMARKS
LLANO          CLOUDY    72  68  88 SE5       29.89S
HORSESHOE BAY  CLOUDY    72  68  88 SE7       29.86F
KERRVILLE      RAIN      71  68  91 SE12G18   29.87F
FREDERICKSBRG  CLOUDY    70  65  86 S9        29.87S
ROCKSPRINGS    PTSUNNY   70  68  94 SE16      29.86F FOG
HONDO          LGT RAIN  72  69  90 SE9       29.86F
UVALDE         CLOUDY    71  69  95 SE9       29.84F
DEL RIO        CLOUDY    73  70  90 SE12G20   29.77F
$$

SOUTHEAST TEXAS

CITY           SKY/WX    TMP DP  RH WIND       PRES   REMARKS
COLLEGE STN    CLOUDY    72  70  93 SE7       29.90S
CALDWELL       CLOUDY    72  72 100 SE7       29.91F
CROCKETT       NOT AVBL
BRENHAM        CLOUDY    74  73  93 SE5       29.90F
HUNTSVILLE     MOCLDY    73  69  87 VRB5      29.92S
CONROE         CLOUDY    72  70  93 E7        29.91F
HOUSTON BUSH   MOCLDY    74  71  91 SE10      29.90F
HOUSTON HOBBY  MOCLDY    76  72  87 SE8       29.90F
PERLAND        CLOUDY    77  72  84 SE13      29.92F
WHARTON        CLOUDY    75  72  91 SE7       29.89F
$$

THE UPPER TEXAS COAST

CITY           SKY/WX    TMP DP  RH WIND       PRES   REMARKS
ORANGE         CLOUDY    74  70  87 E8        29.96R
PORT ARTHUR    CLOUDY    75  72  90 SE12      29.93S
GALVESTON      MOCLDY    75  74  96 SE15      29.92F
ANGLETON       CLOUDY    75  73  93 SE14      29.89F
BAY CITY       CLOUDY    77  75  95 SE9       29.88F
$$

TEXAS COASTAL BEND, RIO GRANDE PLAINS DEEP SOUTH TEXAS

CITY           SKY/WX    TMP DP  RH WIND       PRES   REMARKS
VICTORIA       CLOUDY    75  74  96 MISG      29.86F
BEEVILLE       PTSUNNY   74  74 100 SE8       29.83F
ROCKPORT       CLOUDY    77  73  87 SE16      29.82F
PORT ARANSAS   CLOUDY    76  74  95 SE15G21   29.83F
PORT LAVACA    CLOUDY    75  73  94 SE14      29.86F
CORPUS CHRISTI CLOUDY    77  74  90 SE15      29.82F
KINGSVILLE NAS CLOUDY    77  76  96 SE10      29.81F
COTULLA        CLOUDY    75  68  78 SE9       29.82S
LAREDO         CLOUDY    75  71  87 SE9       29.81S
BROWNSVILLE    CLOUDY    78  75  90 SE17      29.79F
PORT ISABEL    CLOUDY    78  74  87 SE18      29.78F FOG
HEBBRONVILLE     N/A     74  71  92 SE8       29.82S
MCALLEN        CLOUDY    79  74  84 SE12      29.78F
WESLACO        CLOUDY    76  73  90 SE12      29.78S
FALFURRIAS     CLOUDY    76  73  90 E7        29.80S
EDINBURG       CLOUDY    78  74  88 SE9       29.79S
$$



USA.gov is the U.S. government's official web portal to all federal, state and local government web resources and services.